Regional Weather Roundup
Issued by NWS

Home | Current Version | Previous Version | Graphics & Text | Print | Product List | Glossary On
Versions: 1 2 3 4 5 6 7 8 9 10 11 12 13 14 15 16 17 18 19 20 21 22 23 24 25 26 27 28 29 30 31 32 33 34 35 36 37 38 39 40 41 42 43 44 45 46 47 48 49 50
000
ASUS43 KMPX 030001
RWRMN
WEATHER ROUNDUP FOR MINNESOTA
NATIONAL WEATHER SERVICE TWIN CITIES/CHANHASSEN MN
600 PM CST MON MAR 02 2015


NOTE: "FAIR" INDICATES FEW OR NO CLOUDS BELOW 12,000 FEET WITH NO
SIGNIFICANT WEATHER AND/OR OBSTRUCTIONS TO VISIBILITY. N/A MEANS
CURRENT SKY AND/OR WEATHER CONDITIONS ARE NOT AVAILABLE.

MNZ060>063-068>070-030100-
   Twin Cities Metro

CITY           SKY/WX    TMP DP  RH WIND       PRES   REMARKS
TWIN CITIES    CLOUDY    23   7  50 S12       30.23F WCI  12
6HR MIN TEMP:  23; 6HR MAX TEMP:  26;

ST PAUL        CLOUDY    23   8  52 SE14      30.25F WCI  11
CRYSTAL        CLOUDY    25   7  46 S13       30.21F WCI  14
BLAINE         CLOUDY    25  10  54 S10       30.21F WCI  15
LAKEVILLE      MOCLDY    19  10  68 SE8       30.23S WCI   9
EDEN PRAIRIE   CLOUDY    23   9  55 S13       30.21F WCI  11
6HR MIN TEMP:  23; 6HR MAX TEMP:  27;

SOUTH ST PAUL  MOCLDY    24   9  52 SE9       30.24S WCI  14
LAKE ELMO      MOCLDY    23   9  54 S9        30.23F WCI  13
$$
MNZ001>005-007-008-013>017-022>024-027-028-030100-
   Northwest Minnesota

CITY           SKY/WX    TMP DP  RH WIND       PRES   REMARKS
BEMIDJI        MOCLDY    25  10  54 S14G20    29.99F WCI  13
HALLOCK        MOCLDY    25  18  74 S29       29.88F WCI   8
ROSEAU         CLOUDY    27  12  54 S17       29.90F WCI  14
WARROAD        MOCLDY    25  10  54 SE13      29.92F WCI  13
THIEF RVR FALL CLOUDY    25  16  68 S15       29.93F WCI  12
CROOKSTON      CLEAR     27  16  63 S24G30    29.95F WCI  12
FOSSTON        CLOUDY    25  10  54 SE16      29.95F WCI  12
DETROIT LAKES  MOCLDY    27  16  63 S17G26    29.99F WCI  14
MOORHEAD       MOCLDY    28  18  64 S23G31    29.97F WCI  14
PARK RAPIDS    CLOUDY    25  10  53 S18G24    30.01F WCI  11
MAHNOMEN       CLOUDY    26  14  59 S18G25    29.97F WCI  13
$$
MNZ006-009>011-018-025>026-030100-
   North Central Minnesota

CITY           SKY/WX    TMP DP  RH WIND       PRES   REMARKS
BAUDETTE       CLEAR     24   6  46 S13       29.95F WCI  12
FLAG ISLAND    MOCLDY    18   9  68 SE18      29.92F WCI   2
INTL FALLS     CLEAR     25   3  38 S5        30.01F WCI  19
6HR MIN TEMP:  20; 6HR MAX TEMP:  28;

WASKISH        CLEAR     27   7  43 S5        29.99F WCI  21
BIG FORK       CLEAR     25   5  42 S8        30.03F WCI  16
LONGVILLE      CLEAR     23   7  50 S9        30.06F WCI  13
GRAND RAPIDS   CLEAR     23   7  50 S14G22    30.06F WCI  11
CRANE LAKE     CLEAR     25   3  39 S7        30.07F WCI  17
ORR            CLEAR     25   1  36 S3        30.03F
COOK           CLEAR     25   3  39 S8        30.06F WCI  16
WALKER         MOCLDY    25   8  47 S6        30.03F WCI  18
$$
MNZ012-019>021-037-030100-
   Northeast Minnesota

CITY           SKY/WX    TMP DP  RH WIND       PRES   REMARKS
DULUTH         CLEAR     23   5  46 S12       30.12F WCI  12
6HR MIN TEMP:  22; 6HR MAX TEMP:  27;

ELY            CLEAR     23   3  42 S7        30.08F WCI  15
HIBBING        CLEAR     24   2  38 S6        30.08F WCI  17
EVELETH        CLEAR     25   5  42 S13       30.10F WCI  13
DULUTH HARBOR  CLEAR     27   7  43 S10       30.19F WCI  17
TWO HARBORS    CLEAR     27   9  46 S7        30.13F WCI  19
SILVER BAY     CLEAR     25   7  46 S6        30.13F WCI  18
GRAND MARAIS     N/A     28  15  58 S20       30.18F WCI  15
G MARAIS ARPRT FAIR      18   7  62 S8        30.11F WCI   7
$$
MNZ029>031-032-039>041-046>048-054>057-064-030100-
   West Central Minnesota

CITY           SKY/WX    TMP DP  RH WIND       PRES   REMARKS
FERGUS FALLS   CLOUDY    27  16  63 S21       30.03F WCI  13
WHEATON        MOCLDY    25  18  74 SE23      30.02F WCI  10
MORRIS         CLOUDY    27  18  69 S24G30    30.03F WCI  12
ALEXANDRIA     CLOUDY    24  13  62 S17       30.06F WCI  11
ELBOW LAKE     CLOUDY    25  17  70 SE23G31   30.01F WCI  10
WADENA         CLOUDY    23  12  63 SE14      30.03F WCI  11
GLENWOOD       CLOUDY    25  16  68 S14G25    30.08F WCI  13
APPLETON       CLOUDY    28  18  64 SE15G21   30.06F WCI  17
BENSON         CLOUDY    27  16  63 S17G23    30.08F WCI  14
ORTONVILLE     CLOUDY    28  18  64 S14G22    30.02F WCI  17
MADISON        CLOUDY    28  19  69 S17       30.05F WCI  16
WILLMAR        FAIR      25  16  68 SE18      30.13F WCI  11
$$
MNZ033>034-036-042>043-049>051-058-059-030100-
   Central Minnesota

CITY           SKY/WX    TMP DP  RH WIND       PRES   REMARKS
ST CLOUD       CLOUDY    24  10  55 S15       30.15F WCI  11
6HR MIN TEMP:  23; 6HR MAX TEMP:  27;

SAUK CENTRE    CLOUDY    24  14  64 SE13G20   30.09F WCI  12
PAYNESVILLE    CLOUDY    22  12  64 E13G21    30.13F WCI  10
AITKIN         PTCLDY    27   9  46 S9        30.10F WCI  17
PINE RIVER     CLOUDY    25  10  54 S14       30.10F WCI  13
BRAINERD       CLOUDY    23   9  55 S14       30.10F WCI  11
STAPLES        CLOUDY    25  10  54 SE13      30.06F WCI  13
LITTLE FALLS   PTCLDY    27  12  54 SE12      30.12F WCI  16
LITCHFIELD     CLOUDY    25  12  58 SE8       30.15F WCI  16
BUFFALO        CLOUDY    24  10  54 SE7       30.20F WCI  16
MAPLE LAKE     CLOUDY    25  13  61 SE10      30.19F WCI  15
$$
MNZ037-044-045-052-053-030100-
   East Central Minnesota

CITY           SKY/WX    TMP DP  RH WIND       PRES   REMARKS
PRINCETON      MOCLDY    25  10  54 SE9       30.17F WCI  15
MORA           MOCLDY    25   7  46 S6        30.18F WCI  18
CAMBRIDGE      MOCLDY    27  10  50 SE7       30.17F WCI  19
RUSH CITY      PTCLDY    23   8  53 S9        30.19F WCI  13
MOOSE LAKE     CLEAR     23   5  46 CALM      30.13F
HINCKLEY       FAIR      25   9  50 S9        30.17F WCI  15
CLOQUET        CLEAR     21   3  45 S6        30.12F WCI  14
MCGREGOR       CLEAR     23   9  54 S9        30.12F WCI  13
$$
MNZ071>073-080-081-089-090-097-098-030100-
   Southwest Minnesota

CITY           SKY/WX    TMP DP  RH WIND       PRES   REMARKS
MONTEVIDEO     CLOUDY    27  18  69 S13G18    30.10F WCI  16
GRANITE FALLS  CLOUDY    26  18  72 SE15      30.12F WCI  13
CANBY          CLOUDY    28  18  64 S14G23    30.05F WCI  17
MARSHALL       CLOUDY    27  16  63 S16       30.10F WCI  14
REDWOOD FALLS  CLOUDY    25  18  74 SE16      30.14F WCI  12
OLIVIA         CLOUDY    25  18  74 SE15      30.13F WCI  12
PIPESTONE      CLOUDY    27  19  74 S13       30.05F WCI  16
WINDOM         CLOUDY    25  19  80 SE14      30.12F WCI  13
WORTHINGTON    CLOUDY    25  18  74 S16       30.11F WCI  12
JACKSON        CLOUDY    27  19  74 SE12      30.13F WCI  16
TRACY          CLOUDY    27  19  73 S14       30.10F WCI  15
SLAYTON        CLOUDY    25  18  74 SE15      30.08F WCI  12
$$
MNZ065>067-074>077-082>085-091>093-030100-
   South Central Minnesota

CITY           SKY/WX    TMP DP  RH WIND       PRES   REMARKS
MANKATO        CLOUDY    23  12  63 SE16      30.19F WCI  10
NEW ULM        CLOUDY    25  16  68 SE12      30.17F WCI  14
ST JAMES       CLOUDY    27  19  74 SE14      30.18F WCI  15
FAIRMONT       CLOUDY    25  18  74 SE14      30.15F WCI  13
GLENCOE        CLOUDY    25  16  67 SE12G17   30.18F WCI  15
FARIBAULT      CLOUDY    21  12  68 SE8       30.22F WCI  12
OWATONNA       CLOUDY    21  12  68 SE14      30.22F WCI   8
ALBERT LEA     CLOUDY    19  14  79 S12       30.21F WCI   7
$$
MNZ078>079-086>088-094>096-030100-
   Southeast Minnesota

CITY           SKY/WX    TMP DP  RH WIND       PRES   REMARKS
ROCHESTER      CLOUDY    19   9  65 S12       30.23F WCI   7
6HR MIN TEMP:  17; 6HR MAX TEMP:  19;

RED WING       CLOUDY    23   5  46 S10       30.25S WCI  12
STANTON        CLOUDY    22  12  64 S10       30.23S WCI  11
DODGE CENTER   CLOUDY    19  12  73 S10       30.22F WCI   8
WINONA         CLOUDY    28  10  47 S3        30.28F
AUSTIN         CLOUDY    19  10  68 S8        30.22F WCI   9
PRESTON        CLOUDY    19  10  67 S10       30.25F WCI   7
$$
ABBREVIATIONS USED IN REMARKS
   TC - TEMPERATURES IN CELSIUS
  WCI - WIND CHILL INDEX
   HX - HEAT INDEX
  VSB - VISIBILITY
$$


USA.gov is the U.S. government's official web portal to all federal, state and local government web resources and services.